[[{"header":{"parameterUnit":"m.s-1","parameterCategory":1,"la1":30.2991,"la2":30.254,"lo1":-89.0895,"lo2":-89.0444,"dx":0.0017,"dy":0.0017,"nx":28,"ny":28,"refTime":"2023-01-10T15:00:00:Z","depth":0,"parameterNumber":2,"parameterNumberName":"U-component_of_WINDS"},"data":[0,0,0,0,0,0,0,0,0,0,0,0,0,0,0,0,0,0,0,0,0,0,0,0,0,0,0,0,0,0,0,0,0,0,0,0,0,0,0,0,0,0,0,0,0,0,0,0,0,0,0,0,0,0,0,0,0,0,0.5302,0.5303,0,0.5359,0.536,0.536,0.5395,0.5396,0.5396,0.5396,0.5452,0.5453,0.5454,0,0,0,0,0,0,0,0,0,0,0,0,0,0.5224,0.5225,0.5302,0.5303,0.5304,0.5359,0.536,0.536,0.5395,0.5396,0.5396,0.5396,0.5451,0.5453,0.5455,0,0,0,0,0,0,0,0,0,0,0,0,0,0.5267,0.5226,0.5302,0.5328,0.5331,0.5359,0.536,0.5361,0.5395,0.5396,0.5396,0.5396,0.5451,0.5453,0.5455,0.5461,0,0,0.5461,0.5462,0,0,0,0,0,0,0,0,0.5264,0.527,0.5323,0.5326,0.5329,0.537,0.5352,0.5394,0.5395,0.5371,0.5396,0.5396,0.5424,0.5429,0.5438,0.5464,0.5466,0.5461,0.5462,0.5463,0.5464,0,0,0,0,0,0,0,0.5261,0.5267,0.5325,0.5324,0.5328,0.5336,0.5343,0.5361,0.5395,0.5373,0.5376,0.5382,0.5426,0.5436,0.544,0.5467,0.5461,0.5463,0.5464,0.5465,0.5502,0.5502,0,0,0,0,0,0,0.5254,0.5265,0.5323,0.5326,0.5297,0.5338,0.5345,0.5357,0.5395,0.5401,0.5382,0.5383,0.5433,0.5438,0.5442,0.5454,0.5463,0.5465,0.5466,0.5502,0.5502,0.5502,0,0,0,0,0,0,0.5253,0.5259,0.5321,0.5296,0.5305,0.5339,0.5352,0.5358,0.5368,0.5402,0.5408,0.5386,0.5433,0.5439,0.5457,0.5456,0.5466,0.5467,0.5502,0.5502,0.5502,0.5475,0,0,0,0,0,0,0.525,0.5258,0.5261,0.5296,0.5306,0.5334,0.5352,0.5359,0.5372,0.5375,0.5407,0.5413,0.5434,0.5454,0.5459,0.5459,0.5469,0.5503,0.5502,0.5502,0.5476,0.5474,0.5472,0,0,0,0,0,0.5247,0.525,0.5261,0.5268,0.531,0.5334,0.534,0.5364,0.5372,0.5375,0.5397,0.5412,0.5455,0.5455,0.5461,0.5462,0.5503,0.5502,0.5502,0.5477,0.5474,0.5472,0,0,0,0,0,0,0.5213,0.5255,0.5268,0.5282,0.5304,0.534,0.5344,0.536,0.538,0.5382,0.5411,0.5418,0.5433,0.5449,0.5448,0.5471,0.5481,0.5482,0.546,0.5457,0.5455,0.5451,0.5471,0,0,0,0,0,0.5207,0.5224,0.526,0.5269,0.528,0.531,0.5321,0.5339,0.5363,0.5372,0.5395,0.5417,0.5436,0.5447,0.5466,0.5479,0.5487,0.5482,0.548,0.5478,0.5479,0.5488,0.5487,0.55,0.55,0.55,0,0,0.5195,0.522,0.5229,0.5263,0.5282,0.5298,0.5318,0.5333,0.5346,0.5374,0.5393,0.541,0.5437,0.5452,0.546,0.5466,0.5477,0.5478,0.5476,0.5477,0.5487,0.5486,0.5485,0.55,0.55,0.55,0,0,0.5182,0.5202,0.5214,0.5233,0.5263,0.5283,0.5286,0.5319,0.5333,0.5352,0.5374,0.5389,0.542,0.5439,0.5452,0.5449,0.5464,0.5454,0.5443,0.5452,0.5451,0.545,0.545,0.5449,0.5454,0.5454,0.5454,0,0.5163,0.519,0.5217,0.5233,0.5247,0.5275,0.5287,0.5304,0.5337,0.5347,0.5353,0.5395,0.5414,0.5435,0.5435,0.5444,0.5449,0.545,0.5449,0.5448,0.5448,0.5448,0.5448,0.5453,0.5453,0.5453,0.5453,0,0.5166,0.5184,0.5189,0.5223,0.5238,0.5251,0.5281,0.5293,0.5309,0.5329,0.5349,0.5374,0.54,0.5406,0.5421,0.543,0.5433,0.5443,0.5454,0.5445,0.5446,0.5446,0.5451,0.5451,0.5452,0.5452,0,0,0.5132,0.5182,0.5184,0.52,0.5236,0.525,0.5265,0.5291,0.5301,0.5324,0.5338,0.5365,0.5376,0.5391,0.5409,0.5417,0.5414,0.5427,0.5428,0.5425,0.5426,0.5419,0.5418,0.5424,0.5425,0.5425,0.5424,0,0.5125,0.5155,0.5181,0.52,0.5218,0.5245,0.5259,0.5282,0.5301,0.5319,0.534,0.5359,0.5371,0.5381,0.539,0.5412,0.5415,0.5413,0.5438,0.5439,0.5431,0.5418,0.541,0.5409,0.5425,0.5425,0.5425,0,0.5121,0.5144,0.5166,0.5202,0.521,0.5222,0.5249,0.5265,0.5292,0.5306,0.5324,0.5344,0.5361,0.537,0.5395,0.5393,0.5405,0.5418,0.5419,0.5422,0.5432,0.5423,0.5409,0.5409,0.5425,0.5425,0.5425,0,0.5096,0.5133,0.5151,0.5164,0.5206,0.5214,0.5231,0.5259,0.5273,0.5296,0.5306,0.5331,0.5344,0.5363,0.5389,0.5392,0.5412,0.5422,0.5424,0.5423,0.5427,0.5426,0.5415,0.5433,0.5433,0.5433,0.5433,0,0.5086,0.5099,0.5141,0.5152,0.5168,0.5198,0.5212,0.5232,0.5256,0.5272,0.5296,0.5311,0.5343,0.5362,0.5382,0.54,0.5406,0.5418,0.5423,0.5416,0.5415,0.5425,0.5426,0.5433,0.5433,0.5433,0.5433,0,0.5061,0.5089,0.5112,0.515,0.516,0.517,0.5202,0.5215,0.5236,0.5256,0.5262,0.5295,0.5318,0.5346,0.5377,0.5391,0.5408,0.5415,0.5399,0.5402,0.5403,0.5403,0.5398,0.54,0.5415,0.5415,0.5415,0,0.5053,0.5064,0.5104,0.5117,0.5134,0.5155,0.517,0.52,0.5215,0.5248,0.5257,0.5282,0.5303,0.5339,0.5366,0.539,0.5399,0.5396,0.5403,0.5396,0.54,0.54,0.5401,0.5394,0.5393,0.5393,0.5393,0,0.5037,0.5051,0.5073,0.5101,0.5119,0.5142,0.5165,0.5174,0.5209,0.5225,0.5249,0.5266,0.5299,0.5324,0.5352,0.537,0.5388,0.5391,0.5393,0.5386,0.5377,0.5383,0.5395,0.5391,0.5391,0.5391,0.5391,0.5391,0.5022,0.5033,0.5064,0.5088,0.5109,0.5131,0.5145,0.5169,0.519,0.522,0.5236,0.5261,0.5289,0.5329,0.5346,0.5366,0.5372,0.5374,0.5375,0.5375,0.5374,0.5373,0.5371,0.5371,0.5371,0.5371,0.5371,0,0.5008,0.5029,0.5051,0.5085,0.5104,0.5119,0.5147,0.5162,0.5183,0.5208,0.523,0.5259,0.5283,0.5312,0.5339,0.5349,0.5358,0.5355,0.5355,0.5359,0.5366,0.5363,0.5348,0.5348,0.5348,0.5348,0.5348,0.5348,0.5003,0.5024,0.5042,0.5074,0.5096,0.5121,0.5135,0.5156,0.5176,0.5208,0.5229,0.5248,0.5275,0.5304,0.5328,0.5336,0.5345,0.534,0.535,0.5356,0.5358,0.536,0.5357,0.5341,0.5341,0.5341,0.5341,0.5341]},{"header":{"parameterUnit":"m.s-1","parameterCategory":1,"la1":30.2991,"la2":30.254,"lo1":-89.0895,"lo2":-89.0444,"dx":0.0017,"dy":0.0017,"nx":28,"ny":28,"refTime":"2023-01-10T15:00:00:Z","depth":0,"parameterNumber":3,"parameterNumberName":"V-component_of_WINDS"},"data":[0,0,0,0,0,0,0,0,0,0,0,0,0,0,0,0,0,0,0,0,0,0,0,0,0,0,0,0,0,0,0,0,0,0,0,0,0,0,0,0,0,0,0,0,0,0,0,0,0,0,0,0,0,0,0,0,0,0,1.6131,1.6132,0,1.6195,1.6196,1.6197,1.6256,1.6257,1.6257,1.6258,1.6322,1.6323,1.6324,0,0,0,0,0,0,0,0,0,0,0,0,0,1.6058,1.6059,1.6131,1.6132,1.6133,1.6195,1.6196,1.6197,1.6256,1.6257,1.6258,1.6258,1.6322,1.6323,1.6324,0,0,0,0,0,0,0,0,0,0,0,0,0,1.6103,1.606,1.6131,1.617,1.6174,1.6195,1.6196,1.6197,1.6256,1.6257,1.6258,1.6259,1.6322,1.6323,1.6325,1.6312,0,0,1.6329,1.633,0,0,0,0,0,0,0,0,1.61,1.6105,1.6163,1.6167,1.6172,1.6219,1.6194,1.6236,1.6255,1.6224,1.6258,1.6259,1.6287,1.6291,1.6301,1.6315,1.6318,1.6329,1.633,1.6331,1.6331,0,0,0,0,0,0,0,1.6097,1.6103,1.6156,1.6164,1.6169,1.6183,1.6191,1.6202,1.6249,1.6227,1.6232,1.6239,1.6289,1.6299,1.6303,1.6319,1.6329,1.6331,1.6332,1.6332,1.6325,1.6324,0,0,0,0,0,0,1.6088,1.61,1.6154,1.6158,1.6138,1.6184,1.6192,1.6203,1.6249,1.6257,1.6238,1.6241,1.6296,1.6301,1.6305,1.6294,1.6331,1.6332,1.6333,1.6327,1.6325,1.6324,0,0,0,0,0,0,1.6087,1.6093,1.6152,1.6131,1.6139,1.6184,1.6195,1.6203,1.6213,1.6257,1.6265,1.6239,1.6297,1.6303,1.631,1.6297,1.6333,1.6334,1.6328,1.6326,1.6325,1.627,0,0,0,0,0,0,1.6084,1.6092,1.6088,1.613,1.614,1.6156,1.6194,1.6204,1.6216,1.6221,1.626,1.6268,1.6298,1.6307,1.6311,1.6299,1.6336,1.6329,1.6327,1.6325,1.6273,1.6267,1.6261,0,0,0,0,0,1.6081,1.607,1.6087,1.6094,1.6136,1.6155,1.6161,1.6196,1.6214,1.6211,1.6238,1.6267,1.6297,1.6307,1.6313,1.6301,1.633,1.6328,1.6325,1.6276,1.6268,1.6261,0,0,0,0,0,0,1.6024,1.6076,1.6096,1.6098,1.6121,1.6165,1.6161,1.6187,1.6206,1.621,1.6253,1.6261,1.6263,1.6283,1.6293,1.6291,1.6318,1.6316,1.6278,1.6271,1.6265,1.6261,1.6337,0,0,0,0,0,1.6012,1.6023,1.6068,1.6065,1.6076,1.6116,1.6126,1.6151,1.6177,1.6188,1.6216,1.624,1.6255,1.6264,1.628,1.6276,1.6285,1.6271,1.6264,1.6259,1.6257,1.6256,1.625,1.6316,1.6316,1.6316,0,0,1.5987,1.6016,1.6021,1.6054,1.6076,1.6086,1.6124,1.6134,1.6142,1.6189,1.6197,1.6219,1.6248,1.6249,1.6251,1.6266,1.6241,1.6256,1.6252,1.6253,1.6253,1.6247,1.6241,1.6314,1.6314,1.6315,0,0,1.5946,1.5969,1.597,1.599,1.6022,1.6049,1.6049,1.6088,1.6105,1.6114,1.6149,1.6159,1.6184,1.6204,1.6217,1.6182,1.6209,1.6186,1.6155,1.6153,1.6148,1.6144,1.6131,1.6126,1.6184,1.6184,1.6184,0,1.591,1.5928,1.5966,1.5974,1.5987,1.603,1.6031,1.6048,1.6084,1.6092,1.6108,1.614,1.6163,1.6169,1.616,1.617,1.617,1.6182,1.6146,1.6142,1.6138,1.6127,1.6122,1.6181,1.6182,1.6182,1.6182,0,1.5882,1.5894,1.589,1.5923,1.5936,1.5939,1.5978,1.5986,1.601,1.6035,1.6043,1.6072,1.6095,1.6098,1.6122,1.6108,1.6116,1.6138,1.6165,1.6128,1.6118,1.6114,1.6177,1.6178,1.6179,1.618,0,0,1.5808,1.5862,1.586,1.5876,1.5914,1.5923,1.5928,1.5951,1.5957,1.598,1.5985,1.6005,1.6025,1.604,1.6066,1.6064,1.6035,1.6087,1.6088,1.6076,1.6021,1.6004,1.5998,1.6053,1.6052,1.6051,1.6018,0,1.5773,1.5786,1.582,1.5822,1.5833,1.5874,1.5878,1.5902,1.5925,1.5937,1.5962,1.5976,1.6002,1.6011,1.6012,1.6038,1.6024,1.6041,1.6057,1.6058,1.6049,1.5993,1.5976,1.5943,1.6015,1.6014,1.6014,0,1.5735,1.5755,1.5758,1.5795,1.5801,1.5805,1.5828,1.5839,1.5866,1.5883,1.5899,1.5928,1.5935,1.596,1.597,1.5981,1.5989,1.6003,1.6003,1.6006,1.6034,1.5995,1.5934,1.5929,1.6008,1.6008,1.6009,0,1.5681,1.5708,1.5714,1.5726,1.5769,1.5771,1.5789,1.5817,1.5828,1.5848,1.5856,1.5876,1.5887,1.5902,1.5935,1.595,1.5941,1.5969,1.5955,1.5954,1.5952,1.5952,1.5891,1.5957,1.5957,1.5957,1.5957,0,1.5639,1.5639,1.569,1.5693,1.5694,1.5733,1.5733,1.5755,1.5779,1.5787,1.5824,1.583,1.5873,1.5884,1.591,1.5915,1.5919,1.5933,1.594,1.593,1.5928,1.5936,1.5939,1.5955,1.5956,1.5956,1.5956,0,1.5578,1.5612,1.5621,1.5661,1.5671,1.567,1.5705,1.5709,1.5734,1.5744,1.5748,1.5787,1.5802,1.5837,1.5861,1.5878,1.5876,1.5888,1.5867,1.5871,1.5855,1.5856,1.5798,1.5793,1.5861,1.586,1.586,0,1.5549,1.555,1.5591,1.5599,1.5616,1.5628,1.564,1.5678,1.5688,1.5719,1.5719,1.5737,1.5754,1.5776,1.5806,1.5824,1.5838,1.5816,1.5841,1.5831,1.5838,1.5837,1.5837,1.5811,1.581,1.5809,1.5808,0,1.5495,1.5511,1.5527,1.5548,1.5561,1.5579,1.56,1.5604,1.5647,1.5657,1.5673,1.5686,1.571,1.5727,1.575,1.5769,1.5795,1.58,1.5798,1.5788,1.5776,1.5782,1.5852,1.5802,1.5802,1.5803,1.5803,1.5803,1.5449,1.5452,1.5481,1.5497,1.5516,1.5534,1.554,1.5566,1.558,1.5604,1.5625,1.5639,1.5665,1.5699,1.5715,1.5726,1.574,1.5736,1.5736,1.5734,1.573,1.5773,1.573,1.5731,1.5731,1.5731,1.5731,0,1.5396,1.5417,1.5431,1.5459,1.5471,1.5495,1.5519,1.5528,1.5539,1.5562,1.5577,1.5595,1.5612,1.5643,1.5663,1.5665,1.5678,1.5669,1.567,1.5673,1.5717,1.5717,1.5659,1.5659,1.5659,1.5659,1.5659,1.5659,1.537,1.5376,1.5396,1.5412,1.5432,1.5446,1.5458,1.5474,1.5493,1.5511,1.5526,1.5546,1.5572,1.5593,1.561,1.5618,1.5624,1.5611,1.5623,1.5663,1.567,1.5677,1.5677,1.5612,1.5612,1.5579,1.5579,1.5579]}]]